Weather History for Truth Or Consequences, NM

Change the Weather History Date:

Saturday, August 31, 2013

  Actual Average Record
Temperature  
Mean Temperature 82 °F -  
Max Temperature 95 °F 88 °F 99 °F (2011)
Min Temperature 69 °F 62 °F 55 °F (2000)
Cooling Degree Days 17    
Month to date cooling degree days 415  
Year to date cooling degree days 1618  
Since 1 June cooling degree days 1370  
Growing Degree Days 32 (Base 50)    
Moisture  
Dew Point 51 °F    
Average Humidity 39    
Maximum Humidity 61    
Minimum Humidity 16    
Precipitation  
Precipitation 0.00 in - 0.88 in (2008)
Month to date precipitation 1.03  
Year to date precipitation 4.93  
Sea Level Pressure  
Sea Level Pressure 29.81 in    
Wind  
Wind Speed 8 mph (WSW)    
Max Wind Speed 15 mph    
Max Gust Speed 20 mph    
Visibility 10 miles    
Events      
T = Trace of Precipitation, MM = Missing Value Source: NWS Daily Summary

Daily Weather History Graph

Daily Weather History Graph

Search for Another Location

Airport:

Trip Planner

Search our weather history database for the weather conditions in past years. The results will help you decide how hot, cold, wet, or windy it might be!

Date:

Astronomy

Aug. 31, 2013 Rise Set
Actual Time 6:42 AM MDT 7:35 PM MDT
Civil Twilight 6:17 AM MDT 8:00 PM MDT
Nautical Twilight 5:47 AM MDT 8:30 PM MDT
Astronomical Twilight 5:16 AM MDT 9:00 PM MDT
Moon 2:22 AM MDT (8/31) 4:27 PM MDT (8/31)
Length of Visible Light 13h 42m
Length of Day
12h 52m
Waning Crescent, 20% of the Moon is Illuminated
Aug 31
Waning Crescent
Sep 5
New
Sep 12
First Quarter
Sep 19
Full
Sep 26
Last Quarter

Hourly Weather History & Observations

Time (MDT) Temp. Heat Index Dew Point Humidity Pressure Visibility Wind Dir Wind Speed Gust Speed Precip Events Conditions
12:53 AM 75.0 °F - 57.0 °F 53% 29.86 in 10.0 mi West 6.9 mph - N/A   Clear
1:53 AM 75.9 °F - 57.0 °F 52% 29.85 in 10.0 mi West 11.5 mph - N/A   Clear
2:53 AM 75.0 °F - 55.9 °F 51% 29.85 in 10.0 mi WNW 11.5 mph - N/A   Clear
3:53 AM 73.0 °F - 57.0 °F 57% 29.84 in 10.0 mi NNW 10.4 mph - N/A   Clear
4:53 AM 72.0 °F - 57.0 °F 59% 29.85 in 10.0 mi NW 8.1 mph - N/A   Clear
5:53 AM 71.1 °F - 57.0 °F 61% 29.85 in 10.0 mi NW 8.1 mph - N/A   Clear
6:53 AM 69.1 °F - 55.9 °F 63% 29.88 in 10.0 mi NW 8.1 mph - N/A   Clear
7:53 AM 73.0 °F - 55.9 °F 55% 29.90 in 10.0 mi NW 8.1 mph - N/A   Clear
8:53 AM 78.1 °F - 55.9 °F 46% 29.88 in 10.0 mi NNW 5.8 mph - N/A   Clear
9:53 AM 82.0 °F 81.6 °F 55.9 °F 41% 29.88 in 10.0 mi NNE 4.6 mph - N/A   Clear
10:53 AM 84.0 °F 83.0 °F 55.9 °F 38% 29.87 in 10.0 mi Variable 3.5 mph - N/A   Clear
11:53 AM 86.0 °F 84.5 °F 55.0 °F 35% 29.86 in 10.0 mi East 5.8 mph - N/A   Clear
12:53 PM 89.1 °F - 48.9 °F 25% 29.83 in 10.0 mi East 5.8 mph - N/A   Clear
1:53 PM 91.9 °F - 46.0 °F 21% 29.80 in 10.0 mi SSE 3.5 mph 16.1 mph N/A   Clear
2:53 PM 93.0 °F - 45.0 °F 19% 29.77 in 10.0 mi SSW 9.2 mph - N/A   Clear
3:53 PM 95.0 °F - 46.9 °F 19% 29.74 in 10.0 mi ESE 9.2 mph - N/A   Scattered Clouds
4:53 PM 93.9 °F - 45.0 °F 18% 29.73 in 10.0 mi South 9.2 mph 19.6 mph N/A   Clear
5:53 PM 93.0 °F - 41.0 °F 16% 29.72 in 10.0 mi South 8.1 mph - N/A   Clear
6:53 PM 91.9 °F - 45.0 °F 20% 29.72 in 10.0 mi South 13.8 mph - N/A   Clear
7:53 PM 88.0 °F - 44.1 °F 22% 29.74 in 10.0 mi SSW 6.9 mph - N/A   Clear
8:53 PM 84.9 °F - 45.0 °F 25% 29.75 in 10.0 mi South 6.9 mph - N/A   Clear
9:53 PM 84.0 °F - 48.0 °F 28% 29.76 in 10.0 mi SSW 9.2 mph - N/A   Clear
10:53 PM 82.0 °F - 48.9 °F 31% 29.76 in 10.0 mi SW 8.1 mph - N/A   Clear
11:53 PM 75.9 °F - 51.1 °F 42% 29.78 in 10.0 mi West 6.9 mph - N/A   Clear